CAPE
0 8 85 80 49 0 1 1 0 0 0 0 227 320 71 27 32 22 0 17 18 64 106 89 26 8 124 95 69 150 314 418
0 0 0 2 0 0 0 0 0 0 0 0 227 302 185 73 27 60 24 0 6 13 40 48 57 25 58 114 120 156 330 680
0 0 0 3 0 0 0 0 0 0 0 0 29 185 290 266 145 0 11 9 4 0 9 79 2 41 132 265 349 306 388 582
0 0 0 0 0 0 0 0 0 0 0 0 2 60 340 349 212 22 0 0 0 0 13 173 963 157 115 351 601 647 717 836
0 0 0 0 0 0 0 0 0 0 0 0 20 149 205 451 158 5 0 0 0 1 21 1275 1715 1116 480 462 567 801 970 1050
0 0 2 0 0 0 0 2 5 0 0 0 175 471 417 502 277 4 0 0 2 78 898 2149 2122 1990 1550 1126 763 923 1051 1046
0 0 7 0 0 3 0 20 155 15 39 37 756 672 545 514 401 187 48 14 466 1403 1773 2027 2190 2171 2128 2027 1752 1066 1238 1403
5 12 4 2 0 3 0 0 75 175 381 517 1011 1014 766 769 739 611 385 944 2028 1943 1758 1554 1678 1882 2146 1952 1943 1853 1504 1573
50 0 0 0 0 14 138 112 402 82 153 837 1149 1490 1691 1528 1479 1595 1737 1624 1636 1775 1814 1679 1655 1740 1969 1882 1926 2051 2041 1863
0 0 0 0 244 293 344 424 489 594 706 1112 1304 1546 1662 1612 1530 1412 1500 1717 1490 820 686 728 1303 1500 1562 1661 1643 1554 1371 1208
0 0 0 223 217 357 348 390 519 711 971 1130 1005 995 972 1093 1251 916 1195 536 288 361 487 557 707 1265 1238 1262 1242 1281 1294 1255
0 0 0 0 264 280 132 176 306 345 987 1074 814 823 932 921 935 904 446 271 249 394 338 441 549 852 1050 1199 1092 900 835 928
0 0 2 0 208 174 143 15 80 213 688 753 674 717 694 689 760 536 283 274 338 261 407 562 498 598 277 286 366 790 925 943
0 0 4 62 260 169 7 28 39 162 387 672 580 543 691 648 572 351 293 300 267 278 399 620 624 336 199 424 981 1166 987 1016
29 5 9 223 91 42 208 246 127 127 175 209 486 562 576 503 385 310 248 249 188 267 408 600 545 183 56 606 1153 1066 935 1007
175 350 305 95 32 11 140 150 40 93 70 85 252 426 450 448 401 245 197 191 158 267 452 537 472 432 321 674 1137 923 668 606
310 501 505 271 68 83 159 159 113 56 117 255 289 240 450 622 412 119 184 236 266 299 422 530 671 725 646 806 956 1157 903 811
481 476 416 488 367 233 409 276 143 128 33 61 183 105 428 608 265 76 197 319 297 354 539 681 760 848 910 955 967 1179 1046 1080
358 249 287 381 353 280 446 293 169 88 166 86 311 228 385 437 413 232 230 350 355 415 489 756 975 1055 1086 1159 1201 1237 1134 1237
CIN
-0 -120 -86 -120 -50 -0 -68 -337 -0 -0 -0 -0 -234 -197 -311 -326 -279 -258 -4 -169 -142 -132 -171 -182 -192 -128 -195 -194 -200 -163 -161 -158
-0 -0 -0 -77 -0 -0 -0 -0 -0 -0 -0 -0 -129 -156 -223 -249 -312 -269 -242 -15 -174 -117 -141 -179 -209 -199 -227 -194 -186 -160 -164 -145
-0 -0 -0 -167 -0 -0 -0 -0 -0 -0 -0 -0 -198 -194 -164 -181 -233 -0 -227 -112 -137 -49 -222 -198 -41 -244 -187 -168 -178 -195 -177 -147
-0 -0 -0 -0 -0 -0 -0 -0 -0 -0 -0 -0 -97 -276 -226 -154 -245 -360 -0 -0 -0 -0 -226 -247 -121 -203 -183 -171 -157 -151 -191 -160
-0 -0 -0 -0 -0 -0 -0 -0 -35 -0 -0 -0 -382 -255 -255 -161 -238 -304 -0 -0 -0 -155 -268 -118 -92 -138 -181 -174 -159 -178 -168 -152
-0 -0 -31 -0 -0 -0 -0 -43 -82 -0 -0 -190 -255 -204 -205 -164 -189 -109 -0 -0 -116 -236 -160 -86 -110 -149 -156 -154 -187 -188 -186 -153
-0 -0 -109 -0 -0 -58 -0 -88 -46 -44 -109 -168 -171 -142 -126 -151 -134 -134 -218 -167 -184 -136 -127 -103 -98 -113 -136 -154 -171 -203 -204 -168
-41 -95 -104 -99 -0 -59 -0 -2 -102 -111 -91 -262 -227 -183 -161 -124 -106 -102 -140 -145 -107 -90 -90 -101 -95 -99 -93 -107 -126 -151 -190 -178
-31 -0 -0 -0 -13 -175 -177 -242 -185 -46 -113 -227 -182 -130 -100 -107 -93 -92 -108 -115 -95 -68 -52 -45 -59 -72 -70 -81 -87 -80 -107 -139
-0 -0 -0 -0 -267 -255 -192 -214 -215 -181 -206 -187 -159 -131 -118 -134 -128 -130 -125 -117 -118 -144 -134 -141 -60 -37 -51 -60 -74 -88 -108 -130
-0 -0 -0 -127 -159 -113 -99 -109 -213 -150 -205 -186 -165 -124 -121 -138 -113 -126 -119 -164 -174 -155 -146 -141 -114 -59 -60 -55 -62 -69 -77 -92
-0 -0 -0 -0 -154 -270 -179 -47 -202 -152 -146 -164 -166 -100 -109 -179 -147 -149 -179 -177 -166 -145 -163 -153 -143 -105 -77 -63 -64 -93 -109 -95
-0 -0 -12 -0 -216 -313 -54 -75 -232 -211 -192 -218 -136 -156 -210 -244 -177 -190 -188 -176 -160 -146 -113 -111 -169 -155 -288 -279 -207 -131 -111 -109
-0 -0 -30 -282 -232 -144 -46 -254 -235 -214 -222 -229 -290 -275 -204 -205 -189 -201 -172 -185 -160 -133 -113 -97 -120 -218 -315 -205 -103 -86 -96 -80
-61 -74 -158 -191 -153 -350 -248 -198 -292 -302 -443 -375 -271 -243 -196 -164 -211 -179 -194 -173 -163 -146 -112 -101 -136 -297 -392 -145 -91 -92 -90 -72
-86 -111 -126 -206 -379 -355 -237 -225 -420 -433 -420 -367 -242 -234 -192 -195 -192 -208 -229 -153 -151 -144 -97 -105 -150 -203 -245 -141 -88 -87 -96 -105
-99 -162 -150 -208 -233 -190 -259 -354 -416 -482 -373 -276 -267 -273 -199 -174 -177 -212 -169 -162 -133 -102 -105 -99 -121 -113 -132 -94 -82 -52 -65 -66
-33 -88 -68 -63 -163 -271 -189 -226 -292 -315 -392 -432 -353 -284 -232 -185 -200 -230 -183 -153 -143 -122 -83 -101 -106 -74 -69 -70 -60 -37 -45 -43
-51 -116 -104 -102 -192 -279 -158 -212 -286 -341 -286 -361 -318 -265 -226 -203 -201 -196 -224 -188 -115 -95 -114 -88 -83 -57 -49 -33 -29 -24 -26 -30
Wind_Speed
18 15 8 5 22 14 13 15 16 13 16 14 11 9 14 17 19 14 10 4 13 9 7 9 22 21 19 18 20 21 20 18
18 15 13 16 9 14 18 18 19 19 19 16 15 14 13 16 18 18 12 4 7 9 17 20 24 24 16 17 18 19 18 17
17 16 12 14 18 15 12 16 20 21 17 14 18 17 16 17 16 15 16 19 3 17 21 23 26 27 8 13 14 12 16 16
29 24 18 21 17 18 22 24 24 22 21 12 18 16 14 16 17 18 21 24 29 14 19 24 24 24 2 9 9 13 8 11
26 22 17 18 13 15 16 17 17 17 21 13 10 13 15 16 18 20 23 24 27 27 26 22 22 20 19 5 12 7 6 11
27 20 15 17 21 13 14 17 15 6 15 9 12 14 15 16 19 20 21 22 16 22 17 19 21 20 18 18 2 3 8 9
17 14 15 20 22 20 14 10 9 2 3 10 13 14 15 17 18 21 19 17 10 9 10 14 17 18 19 19 18 10 5 6
16 18 20 18 21 23 21 13 15 11 4 7 8 12 13 14 18 18 13 12 11 12 13 13 16 18 18 18 18 16 13 13
22 20 23 25 24 22 18 10 6 4 4 11 9 9 12 14 15 15 13 10 12 13 13 13 14 15 15 14 14 13 13 13
18 20 26 24 15 14 8 9 12 10 4 6 10 11 12 14 15 14 15 14 14 14 14 14 14 14 13 13 13 12 13 13
18 23 24 21 20 10 6 7 6 9 3 3 5 6 6 11 13 14 14 14 15 14 14 15 16 16 16 15 14 14 14 14
19 25 27 21 13 13 10 9 6 7 2 3 4 6 10 11 14 14 12 12 13 15 15 16 16 17 17 16 16 16 15 15
19 20 22 19 5 11 11 17 8 6 8 6 12 2 5 8 10 12 12 10 12 14 15 15 16 17 18 18 18 18 18 17
23 22 23 3 4 18 5 13 5 2 5 8 3 4 8 8 8 3 8 9 11 13 15 15 16 16 17 17 19 19 18 18
12 30 21 12 14 7 9 7 5 2 4 2 4 6 9 8 5 5 2 7 9 11 12 14 16 14 15 16 16 16 18 17
13 16 10 13 17 13 14 14 7 3 3 9 9 13 16 13 14 14 7 8 7 8 10 15 15 12 12 13 13 14 15 16
10 8 5 6 2 1 5 6 6 5 5 10 10 11 12 8 10 13 16 13 9 10 11 15 9 11 11 13 14 16 16 16
9 2 10 2 3 4 6 9 7 6 5 4 4 10 9 7 3 8 18 13 11 12 12 11 8 10 13 16 16 16 17 17
12 6 15 1 8 7 4 9 10 6 8 7 7 9 10 7 4 8 11 14 15 13 7 7 9 10 18 18 15 17 18 17
Wind_Direction
288 296 307 346 270 312 267 270 283 227 247 224 182 197 112 117 135 146 149 184 182 206 257 287 250 186 182 184 187 188 187 187
288 316 294 265 117 298 279 270 283 280 269 199 156 139 122 118 134 126 117 100 239 214 254 269 271 211 184 183 186 186 183 185
293 291 315 283 270 302 325 314 266 291 252 160 161 147 125 102 113 128 127 140 194 244 249 259 262 261 171 174 176 176 179 181
266 286 296 277 282 287 282 274 271 273 250 128 145 136 104 112 94 115 135 148 181 248 251 251 269 270 192 168 173 178 179 180
275 285 303 287 280 295 299 314 321 298 280 328 64 111 125 110 91 107 130 143 169 192 232 260 277 282 283 280 180 186 196 186
265 289 302 285 278 289 307 303 308 335 338 100 117 124 115 104 101 108 118 132 187 242 252 281 287 288 298 296 236 228 198 204
279 298 300 286 278 281 300 308 308 118 109 117 117 112 111 108 101 123 112 115 46 31 356 327 308 304 304 305 305 311 281 268
280 295 285 288 285 283 283 291 296 317 1 90 81 97 104 106 116 124 91 59 32 4 356 355 333 316 308 312 314 318 318 312
270 289 280 277 279 282 289 300 308 348 87 116 106 103 111 111 104 97 83 40 40 27 34 20 2 352 345 332 327 339 343 336
277 287 260 267 295 305 305 294 299 320 51 112 118 106 109 118 114 102 95 77 58 54 59 45 36 29 21 19 13 358 347 347
283 271 265 275 269 290 290 304 340 329 35 88 91 74 94 120 120 108 99 77 70 60 56 51 46 51 46 41 33 22 14 9
278 260 255 276 273 274 306 319 321 102 238 174 129 149 144 134 127 115 96 71 65 61 63 61 60 53 49 46 38 33 31 32
269 271 277 277 322 280 287 302 307 105 135 162 161 208 140 139 128 114 94 72 67 61 69 69 65 54 54 57 56 57 56 43
256 271 271 319 319 263 278 316 10 144 152 166 171 139 146 152 139 124 86 77 80 73 71 73 77 67 62 62 72 72 55 51
270 250 274 152 284 310 342 351 350 306 289 184 147 146 151 171 182 244 83 96 87 81 61 70 86 64 62 70 64 65 72 56
279 284 294 171 267 280 298 310 331 7 100 137 146 142 143 140 140 143 136 117 87 73 72 100 95 53 48 70 60 62 72 77
299 302 329 303 259 106 346 22 45 66 101 132 138 142 147 144 136 136 138 127 107 105 95 117 53 6 55 75 86 111 115 126
275 177 291 157 136 100 94 104 77 75 112 136 184 170 214 199 203 125 138 126 116 112 107 96 27 27 94 123 125 132 144 145
278 260 274 222 134 116 57 105 112 89 100 113 170 184 210 196 241 116 126 137 124 118 80 23 45 79 153 145 125 150 157 153